Find Starlink 32025

NORAD ID: 60138 Int'l Des: 2024-120 Owner: SPXS Country: US Constellation: starlink operational
LEOCIRCULAR

当前视图

正在加载3D地球...

About Starlink 32025

Starlink 32025 (NORAD 60138) is a starlink constellation satellite (v2 mini) launched Jun 27, 2024 by SPXS of US. It operates in LEO, CIRCULAR orbit with a mass of 730.00 kg.

关于 Starlink 32025

正在加载描述...

即将过境

Passes for default location (London). Set your location on the main map for personalized predictions.

高度历史

Loading altitude history...

两行轨道根数

1 60138U 24120D 26171.45988999 .00000998 00000-0 40675-4 0 9997
2 60138 53.1597 201.6522 0001186 88.0548 272.0590 15.34393005112122
Epoch: Jun 20, 2026 • Age: 22 hours

当前状态

高度 463.0 km
速度 7.64 km/s
星下点 5.37°N, 157.55°E
发射日期 Jun 27, 2024
运行时间 1.9 years
类型 internet

技术详情

分类 Payload
质量 730.00 kg
干质量 700.00 kg
总质量 730.00 kg
长度 0.30 m
直径 4.10 m
跨度 29.00 m
形状 Box + pan
制造商 SPXS
平台类型 Starlink V2M
阶段状态 In Orbit
所有者/国家 SPXS/US

Most Searched